Regional Weather Roundup
Issued by NWS

Home | Current Version | Previous Version | Text Only | Print | Product List | Glossary On
Versions: 1 2 3 4 5 6 7 8 9 10 11 12 13 14 15 16 17 18 19 20 21 22 23 24 25 26 27 28 29 30 31 32 33 34 35 36 37 38 39 40 41 42 43 44 45 46 47 48 49 50
000
ASUS43 KOAX 232310
RWRNE

WEATHER ROUNDUP FOR NEBRASKA
NATIONAL WEATHER SERVICE OMAHA NE
500 PM CST THU NOV 23 2017

NOTES: SATELLITE DATA IS BEING USED TO AUGMENT CLOUD COVER ABOVE
       12000 FEET.
       "FAIR" INDICATES FEW OR NO CLOUDS BELOW 12,000 FEET WITH NO
       SIGNIFICANT WEATHER AND/OR OBSTRUCTIONS TO VISIBILITY.


NEZ001>004-019>022-054>056-240000-
NEBRASKA PANHANDLE

CITY           SKY/WX    TMP DP  RH WIND       PRES   REMARKS
SCOTTSBLUFF    CLEAR     63  36  36 NW8       29.89F
ALLIANCE       CLEAR     54  37  52 W9        29.86F
CHADRON        CLEAR     68  35  29 W12       29.79F
GORDON         FAIR      67  36  31 W3        29.81F
KIMBALL        CLOUDY    64  32  30 W14       29.96F
SIDNEY         CLOUDY    65  31  28 W12       29.92F
$$

NEZ057>060-069>072-079>082-240000-
SOUTHWEST NEBRASKA

CITY           SKY/WX    TMP DP  RH WIND       PRES   REMARKS
NORTH PLATTE   CLEAR     60  41  49 W6        29.86F
IMPERIAL       CLOUDY    65  35  33 W6        29.90F
LEXINGTON      CLEAR     63  41  44 SW8       29.87F
MCCOOK         CLEAR     65  42  43 S8        29.88F
OGALLALA       CLOUDY    66  38  36 S5        29.87F
$$

NEZ005>010-023>029-035>040-094-240000-
NORTH CENTRAL NEBRASKA

CITY           SKY/WX    TMP DP  RH WIND       PRES   REMARKS
VALENTINE      CLOUDY    65  38  36 W6        29.78F
AINSWORTH      CLOUDY    65  40  41 SW8       29.80S
BROKEN BOW     CLEAR     64  42  44 SW9       29.84F
O`NEILL        CLOUDY    64  43  47 S5        29.79F
ORD            CLOUDY    64  42  44 SW8       29.81F
THEDFORD       PTCLDY    68  40  35 SW5       29.83F
$$

NEZ041-046>049-061>064-073>077-083>087-240000-
SOUTH CENTRAL NEBRASKA

CITY           SKY/WX    TMP DP  RH WIND       PRES   REMARKS
GRAND ISLAND   CLEAR     65  41  41 SW12      29.86F
AURORA         CLEAR     64  39  39 SW12      29.86S
HASTINGS       CLEAR     66  39  37 S9        29.88F
HEBRON         CLEAR     64  40  41 SW6       29.89S
HOLDREGE       CLEAR     64  43  45 S7        29.87F
KEARNEY        CLOUDY    63  42  46 S8        29.88F
YORK           CLEAR     64  41  42 SW10      29.86F
$$

NEZ011>018-030>034-042>045-240000-
NORTHEAST NEBRASKA

CITY           SKY/WX    TMP DP  RH WIND       PRES   REMARKS
NORFOLK        CLEAR     62  42  47 S10       29.79F
ALBION         CLOUDY    65  42  42 SW6       29.82S
BLAIR          CLEAR     58  38  49 S8        29.85F
COLUMBUS       CLEAR     64  42  44 S8        29.83F
FREMONT        CLEAR     58  38  47 SE7       29.85F
TEKAMAH        CLEAR     54  37  52 S8        29.83F
WAYNE          CLOUDY    59  38  45 S8        29.79F
$$

NEZ050>053-065>068-078-088>093-240000-
SOUTHEAST NEBRASKA

CITY           SKY/WX    TMP DP  RH WIND       PRES   REMARKS
LINCOLN        CLEAR     58  41  53 S8        29.86F
OMAHA EPPLEY   PTCLDY    53  37  54 SE7       29.86F
BEATRICE       CLEAR     63  42  46 S8        29.88S
FALLS CITY     CLEAR     60  37  42 SE5       29.89F
NEBRASKA CITY  CLEAR     59  39  48 S3        29.89S
PLATTSMOUTH    CLEAR     58  39  49 SE6       29.88F
$$

NEZ044-045-051>053-067-240000-
OMAHA AREA

CITY           SKY/WX    TMP DP  RH WIND       PRES   REMARKS
OMAHA EPPLEY   PTCLDY    53  37  54 SE7       29.86F
BLAIR          CLEAR     58  38  49 S8        29.85F
FREMONT        CLEAR     58  38  47 SE7       29.85F
MILLARD        CLEAR     60  40  46 SE5       29.86F
OFFUTT AFB     CLEAR     55  38  51 SE7       29.87F
PLATTSMOUTH    CLEAR     58  39  49 SE6       29.88F
WAHOO          FAIR      57  38  49 SE10      29.85F
$$



USA.gov is the U.S. government's official web portal to all federal, state and local government web resources and services.